User: anonymous   Login
Location: Castiglione Fibocchi
(43.5333°N, 11.7667°E)
Time: 12:09:42
(UTC+00:00)
Language:

Landsat 5 - Orbit

View from above orbital plane
View from above orbital plane
View from above satellite
View from above satellite

Ground track
Ground track

The orbit data is extracted from the following two-line orbital elements,

1 14780U 84021A   20293.69892919 +.00000053 +00000-0 +10985-4 0  9999
2 14780 098.1867 095.4933 0091157 115.8107 245.2549 14.92124462957850
Epoch (UTC): 19 October 2020 16:46:27
Eccentricity: 0.0091157
inclination: 98.1867°
perigee height: 528 km
apogee height: 655 km
right ascension of ascending node: 95.4933°
argument of perigee: 115.8107°
revolutions per day: 14.92124462
mean anomaly at epoch: 245.2549°
orbit number at epoch: 95785

The dashed part of the orbit path shows where the satellite is in the earth's shadow,  

DLR